Location: Waldport
(44.4270°N, 124.0680°W)
Time: 03:09:50
(UTC-07:00)

Amateur Radio Satellites - All Passes

Search period start: 30 July 2015 02:39
Search period end: 31 July 2015 02:39
Location: Waldport, 44.4270°N, 124.0680°W

Satellite Date Start Highest point End Downlink Frequencies (MHz)
Time Altitude Azimuth
BEESAT 3 30 Jul 02:40:49 02:43:31 16° 323° (NW) 02:46:07 437.485
BEESAT 30 Jul 02:41:33 02:46:11 48° 261° (W) 02:50:51 436.000
Gurwin Techsat 1B 30 Jul 02:54:52 02:59:17 27° 93° (E) 03:03:46 435.225
SWISSCUBE 30 Jul 03:02:23 03:06:34 29° 265° (W) 03:10:42 437.505
JAS-2 30 Jul 03:07:14 03:12:40 21° 85° (E) 03:18:24 435.910
AIST 2 30 Jul 03:12:21 03:16:13 32° 314° (NW) 03:20:04 435.215
ITUPSAT 1 30 Jul 03:22:52 03:26:32 21° 268° (W) 03:30:06 437.325
ITAMSAT 1 30 Jul 03:30:34 03:35:34 48° 99° (E) 03:40:35 435.822/435.867
O/OREOS (USA 219) 30 Jul 03:31:14 03:35:28 40° 300° (WNW) 03:39:44 437.305
STARS 30 Jul 03:50:51 03:55:13 82° 257° (WSW) 03:59:37 437.465
Oscar 19 30 Jul 03:54:28 03:59:00 31° 294° (WNW) 04:03:29 437.125/150
Cosmos 2504 30 Jul 04:05:53 04:13:00 79° 280° (W) 04:20:39 435.465 / 435.565
ISS 30 Jul 04:08:13 04:11:28 60° 27° (NNE) 04:14:42 145.825
YUBILEINY 30 Jul 04:11:09 04:15:31 14° 309° (NW) 04:19:22 435.215
KKS-1 30 Jul 04:12:27 04:16:23 30° 264° (W) 04:20:17 437.445
Gurwin Techsat 1B 30 Jul 04:34:26 04:39:27 43° 291° (WNW) 04:44:26 435.225
CUSAT 1 30 Jul 04:35:31 04:37:33 18° 96° (E) 04:39:30 437.405
RS-15 30 Jul 04:38:30 04:48:22 32° 20° (NNE) 04:58:43 29.354- 29.394
MOZHAYETS 4 30 Jul 04:45:19 04:49:56 72° 74° (ENE) 04:54:37
JAS-2 30 Jul 04:50:50 04:58:39 88° 289° (WNW) 05:06:30 435.910
GONETS M04 30 Jul 04:59:21 05:01:49 12° 74° (ENE) 05:04:59
CUBESAT XI-V 30 Jul 05:00:02 05:00:59 11° 59° (ENE) 05:02:10 437.345
AO-7 30 Jul 05:05:30 05:13:40 55° 101° (ESE) 05:21:48 29.400- 29.500
HORYU 2 30 Jul 05:07:04 05:11:34 61° 101° (E) 05:16:02 437.375
ITAMSAT 1 30 Jul 05:10:40 05:14:49 24° 296° (WNW) 05:18:52 435.822/435.867
DANDE 30 Jul 05:40:15 05:43:40 82° 279° (W) 05:46:29 436.750
ISS 30 Jul 05:45:08 05:47:40 20° 224° (SW) 05:50:08 145.825
Cosmos 2504 30 Jul 06:02:34 06:06:53 16° 305° (NW) 06:10:59 435.465 / 435.565
STRAND 1 30 Jul 06:09:43 06:13:18 20° 62° (ENE) 06:17:01 437.568
CUSAT 1 30 Jul 06:18:45 06:20:04 12° 289° (WNW) 06:21:15 437.405
CUTE-I 30 Jul 06:22:02 06:24:47 15° 87° (E) 06:27:47 437.470
MOZHAYETS 4 30 Jul 06:25:36 06:27:46 13° 273° (W) 06:29:42
CUBESAT XI-V 30 Jul 06:33:02 06:37:44 82° 77° (ENE) 06:42:26 437.345
JAS-2 30 Jul 06:37:06 06:42:50 23° 303° (WNW) 06:48:22 435.910
HORYU 2 30 Jul 06:44:58 06:47:46 16° 298° (WNW) 06:50:24 437.375
GONETS M04 30 Jul 06:48:34 06:57:05 64° 93° (E) 07:05:40
RS-15 30 Jul 06:51:43 07:03:25 70° 49° (NE) 07:15:36 29.354- 29.394
AO-7 30 Jul 06:58:42 07:06:15 39° 301° (WNW) 07:13:38 29.400- 29.500
PRISM 30 Jul 07:00:45 07:04:41 40° 71° (ENE) 07:08:38 437.425
Cubesat XI-IV 30 Jul 07:03:53 07:08:44 35° 96° (E) 07:13:35 437.490
BEESAT 3 30 Jul 07:41:27 07:43:24 13° 34° (NNE) 07:45:28 437.485
STRAND 1 30 Jul 07:47:01 07:52:06 60° 259° (WSW) 07:57:13 437.568
CUTE-I 30 Jul 08:00:14 08:05:35 77° 287° (WNW) 08:10:53 437.470
Cosmos 2499 30 Jul 08:05:05 08:11:56 45° 89° (E) 08:19:24 435.465 / 435.565
M-CUBED/EXP-1 PRIME 30 Jul 08:05:22 08:06:25 11° 52° (NE) 08:07:42 437.505
CUBESAT XI-V 30 Jul 08:14:21 08:15:52 11° 274° (W) 08:17:06 437.345
AUBIESAT-1 30 Jul 08:34:53 08:37:40 18° 57° (ENE) 08:40:42 437.475
BEESAT 2 30 Jul 08:35:17 08:38:45 26° 43° (NE) 08:42:13 435.950
PRISM 30 Jul 08:37:16 08:40:19 19° 268° (W) 08:43:16 437.425
Cubesat XI-IV 30 Jul 08:44:02 08:48:49 33° 294° (WNW) 08:53:30 437.490
GONETS M04 30 Jul 08:47:06 08:54:40 31° 295° (WNW) 09:02:02
BRITE-PL 30 Jul 08:47:44 08:51:55 47° 99° (E) 08:56:21 437.365/2234.400
AO-7 30 Jul 08:55:59 08:56:48 10° 324° (NW) 08:57:12 29.400- 29.500
CUTE 1.7 + AOD 2 30 Jul 08:56:27 08:59:12 17° 90° (E) 09:02:05 437.475
SEEDS 30 Jul 08:57:33 08:59:42 14° 88° (E) 09:02:02 437.485
HO-68 30 Jul 09:01:01 09:07:02 29° 93° (E) 09:13:11 435.675
CANX-2 30 Jul 09:04:02 09:07:24 22° 92° (E) 09:10:51 2200.000
RS-15 30 Jul 09:04:45 09:15:24 40° 251° (WSW) 09:26:05 29.354- 29.394
DOVE 4 30 Jul 09:08:34 09:12:33 30° 95° (E) 09:16:47 437.250
GOMX 1 30 Jul 09:09:26 09:13:44 48° 99° (E) 09:18:19 467.674
BEESAT 3 30 Jul 09:17:59 09:22:04 78° 54° (NE) 09:26:04 437.485
AAUSAT CUBESAT 2 30 Jul 09:28:40 09:31:46 20° 92° (E) 09:34:55 437.432
CINEMA 3 30 Jul 09:33:38 09:37:29 26° 94° (E) 09:41:32 145.822/145.860
M-CUBED/EXP-1 PRIME 30 Jul 09:36:26 09:40:26 85° 71° (ENE) 09:44:49 437.505
CUTE-I 30 Jul 09:42:41 09:44:52 12° 304° (WNW) 09:46:48 437.470
ZACube-1 30 Jul 09:50:49 09:51:37 11° 86° (E) 09:52:43 437.345
UNISAT 6 30 Jul 09:52:09 09:55:10 19° 64° (ENE) 09:58:22 437.425
AIST 2 30 Jul 09:53:44 09:57:38 36° 47° (NE) 10:01:31 435.215
Cosmos 2499 30 Jul 09:58:25 10:05:16 38° 291° (WNW) 10:12:34 435.465 / 435.565
SO-50 30 Jul 10:06:01 10:10:19 35° 116° (ESE) 10:14:48 436.795
UWE-3 30 Jul 10:07:44 10:11:12 22° 92° (E) 10:14:50 435.000/436.395/437.385
AUBIESAT-1 30 Jul 10:08:04 10:11:58 51° 256° (WSW) 10:16:14 437.475
FUNcube-1 30 Jul 10:11:37 10:14:36 18° 90° (E) 10:17:46 145.935
POLYITAN 1 30 Jul 10:13:05 10:14:46 12° 62° (ENE) 10:16:38 437.675
BEESAT 2 30 Jul 10:13:06 10:16:54 37° 242° (WSW) 10:20:36 435.950
PCSat 30 Jul 10:17:07 10:22:28 66° 118° (ESE) 10:27:52 145.827
CUBEBUG 2 30 Jul 10:18:22 10:22:34 34° 96° (E) 10:26:52 437.445
COMPASS 1 30 Jul 10:20:02 10:24:18 86° 102° (ESE) 10:28:32 437.405
YUBILEINY 30 Jul 10:20:29 10:25:35 17° 54° (NE) 10:31:08 435.215
BRITE-PL 30 Jul 10:27:13 10:30:13 18° 294° (WNW) 10:33:13 437.365/2234.400
Oscar 11 30 Jul 10:27:26 10:31:32 39° 97° (E) 10:35:37 145.826/435.025
POPSAT HIP 1 30 Jul 10:29:47 10:32:34 18° 65° (ENE) 10:35:28 437.405
CUTE 1.7 + AOD 2 30 Jul 10:31:16 10:35:25 47° 288° (WNW) 10:39:32 437.475
SEEDS 30 Jul 10:31:42 10:35:55 57° 286° (WNW) 10:40:05 437.485
TIGRISAT 30 Jul 10:35:02 10:39:10 47° 72° (ENE) 10:43:27 435.000
ANTELSAT 30 Jul 10:35:51 10:40:03 50° 72° (ENE) 10:44:23 437.575/2403.000
QB50P2 30 Jul 10:36:28 10:39:37 21° 66° (ENE) 10:42:53 145.880/145.840
CANX-2 30 Jul 10:39:29 10:43:27 35° 290° (WNW) 10:47:20 2200.000
BUGSAT 1 30 Jul 10:45:13 10:47:37 16° 65° (ENE) 10:50:10 437.445
DOVE 4 30 Jul 10:46:20 10:50:18 30° 290° (WNW) 10:54:24 437.250
HO-68 30 Jul 10:48:11 10:55:14 59° 292° (WNW) 11:02:14 435.675
GOMX 1 30 Jul 10:48:28 10:51:39 19° 294° (WNW) 10:54:50 467.674
HUMSAT D 30 Jul 10:52:41 10:55:48 20° 91° (E) 10:59:02 437.325/437.525
DX 1 30 Jul 10:54:51 10:56:57 14° 89° (E) 10:59:15 434.975-435.025
BEESAT 3 30 Jul 10:58:25 10:59:26 11° 251° (WSW) 11:00:15 437.485
DUCHIFAT 1 30 Jul 11:02:37 11:06:26 36° 70° (ENE) 11:10:19 145.980
Cosmos 2491 30 Jul 11:03:30 11:03:31 10° 72° (ENE) 11:04:19 435.465 / 435.565
AAUSAT CUBESAT 2 30 Jul 11:03:36 11:07:31 38° 289° (WNW) 11:11:23 437.432
DELFI C3 30 Jul 11:03:46 11:07:51 67° 102° (ESE) 11:11:51 145.870
QB50P1 30 Jul 11:04:13 11:08:07 39° 71° (ENE) 11:12:04 145.935-145.965
NANOSAT C BR1 30 Jul 11:06:16 11:10:11 41° 71° (ENE) 11:14:09 145.865
CINEMA 3 30 Jul 11:10:31 11:14:45 37° 290° (WNW) 11:19:08 145.822/145.860
50 SAT 30 Jul 11:12:04 11:14:04 14° 89° (E) 11:16:14 437.505
ZACube-1 30 Jul 11:24:05 11:28:38 83° 284° (WNW) 11:33:13 437.345
UNISAT 6 30 Jul 11:27:28 11:31:39 46° 262° (W) 11:35:56 437.425
AIST 2 30 Jul 11:32:34 11:36:05 26° 245° (WSW) 11:39:30 435.215
UWE-3 30 Jul 11:43:36 11:47:54 42° 289° (WNW) 11:52:16 435.000/436.395/437.385
POLYITAN 1 30 Jul 11:45:58 11:50:09 71° 258° (WSW) 11:54:22 437.675
SO-50 30 Jul 11:46:25 11:50:52 36° 316° (NW) 11:55:26 436.795
FUNcube-1 30 Jul 11:46:51 11:51:14 50° 287° (WNW) 11:55:39 145.935
AIST 1 30 Jul 11:54:30 11:57:01 16° 86° (E) 11:59:42
CUBEBUG 2 30 Jul 11:55:14 11:59:08 27° 292° (WNW) 12:03:03 437.445
AISAT 30 Jul 11:56:40 12:00:46 37° 97° (E) 12:04:53 437.250
COMPASS 1 30 Jul 11:58:22 11:59:22 11° 299° (WNW) 12:00:08 437.405
O/OREOS (USA 219) 30 Jul 11:59:56 12:04:27 57° 63° (ENE) 12:08:58 437.305
PCSat 30 Jul 12:01:58 12:06:23 24° 318° (NW) 12:10:45 145.827
POPSAT HIP 1 30 Jul 12:04:06 12:08:08 45° 262° (W) 12:12:11 437.405
Oscar 11 30 Jul 12:04:06 12:07:30 22° 294° (WNW) 12:10:47 145.826/435.025
UKube-1 30 Jul 12:04:18 12:08:37 68° 102° (ESE) 12:12:54 .
QB50P2 30 Jul 12:11:25 12:15:19 36° 263° (W) 12:19:14 145.880/145.840
TIGRISAT 30 Jul 12:13:20 12:16:16 17° 270° (W) 12:19:06 435.000
ANTELSAT 30 Jul 12:14:24 12:17:13 16° 271° (W) 12:19:55 437.575/2403.000
YUBILEINY 30 Jul 12:15:33 12:24:23 74° 79° (E) 12:33:13 435.215
CUBEBUG 1 30 Jul 12:17:10 12:21:08 35° 97° (E) 12:25:07 437.445
BUGSAT 1 30 Jul 12:18:50 12:22:46 48° 261° (W) 12:26:42 437.445
HUMSAT D 30 Jul 12:27:39 12:31:44 41° 289° (WNW) 12:35:47 437.325/437.525
DX 1 30 Jul 12:29:22 12:33:39 60° 287° (WNW) 12:37:55 434.975-435.025
VELOX 1 30 Jul 12:36:09 12:40:35 86° 284° (WNW) 12:44:59 145.980
HO-68 30 Jul 12:38:18 12:41:39 14° 312° (NW) 12:44:40 435.675
DUCHIFAT 1 30 Jul 12:39:11 12:42:23 21° 268° (W) 12:45:31 145.980
ESTCUBE 1 30 Jul 12:39:56 12:44:27 74° 102° (ESE) 12:48:55 437.505/2401.250
DELFI C3 30 Jul 12:40:39 12:42:25 12° 297° (WNW) 12:44:00 145.870
QB50P1 30 Jul 12:41:06 12:44:10 19° 268° (W) 12:47:09 145.935-145.965
NANOSAT C BR1 30 Jul 12:43:13 12:46:14 18° 269° (W) 12:49:08 145.865
50 SAT 30 Jul 12:45:06 12:48:59 50° 287° (WNW) 12:52:49 437.505
Cosmos 2491 30 Jul 12:50:10 12:58:38 58° 92° (E) 13:07:10 435.465 / 435.565
SPROUT 30 Jul 13:00:46 13:04:37 32° 96° (E) 13:08:29 437.525
ZACube-1 30 Jul 13:03:23 13:04:20 10° 300° (WNW) 13:05:03 437.345
ITAMSAT 1 30 Jul 13:14:11 13:16:30 13° 58° (ENE) 13:19:04 435.822/435.867
TISAT 1 30 Jul 13:20:19 13:24:04 31° 96° (E) 13:27:51 437.305
JAS-2 30 Jul 13:26:29 13:27:06 10° 46° (NE) 13:28:06 435.910
AIST 1 30 Jul 13:30:05 13:34:19 48° 283° (WNW) 13:38:32
SO-50 30 Jul 13:31:42 13:32:55 11° 338° (NNW) 13:34:00 436.795
Oscar 19 30 Jul 13:33:22 13:38:23 62° 72° (ENE) 13:43:29 437.125/150
AISAT 30 Jul 13:33:39 13:37:10 23° 294° (WNW) 13:40:35 437.250
O/OREOS (USA 219) 30 Jul 13:40:36 13:43:28 16° 259° (W) 13:46:09 437.305
UKube-1 30 Jul 13:42:01 13:44:16 14° 298° (WNW) 13:46:20 .
ITUPSAT 1 30 Jul 13:45:55 13:46:18 10° 85° (E) 13:47:02 437.325
Cosmos 2504 30 Jul 13:49:18 13:56:59 40° 71° (ENE) 14:05:00 435.465 / 435.565
CUBEBUG 1 30 Jul 13:53:51 13:57:20 23° 293° (WNW) 14:00:43 437.445
YUBILEINY 30 Jul 14:13:32 14:20:29 26° 278° (W) 14:27:07 435.215
VELOX 1 30 Jul 14:15:39 14:16:28 10° 301° (WNW) 14:17:04 145.980
AO-7 30 Jul 14:16:42 14:22:32 22° 50° (NE) 14:28:37 29.400- 29.500
Gurwin Techsat 1B 30 Jul 14:17:22 14:22:28 49° 70° (ENE) 14:27:36 435.225
ESTCUBE 1 30 Jul 14:18:32 14:20:47 13° 299° (WNW) 14:22:50 437.505/2401.250
SPROUT 30 Jul 14:37:01 14:40:35 25° 292° (WNW) 14:44:05 437.525
BEESAT 30 Jul 14:40:03 14:44:29 37° 97° (E) 14:48:55 436.000
Cosmos 2491 30 Jul 14:48:08 14:56:02 35° 293° (WNW) 15:03:44 435.465 / 435.565
ITAMSAT 1 30 Jul 14:50:05 14:55:18 86° 78° (ENE) 15:00:34 435.822/435.867
TISAT 1 30 Jul 14:56:15 14:59:44 25° 293° (WNW) 15:03:08 437.305
SWISSCUBE 30 Jul 15:00:08 15:04:55 65° 102° (ESE) 15:09:38 437.505
JAS-2 30 Jul 15:04:41 15:10:30 50° 68° (ENE) 15:17:08 435.910
CUSAT 1 30 Jul 15:06:12 15:09:18 23° 74° (ENE) 15:13:12 437.405
Oscar 19 30 Jul 15:14:48 15:18:15 17° 271° (W) 15:21:32 437.125/150
ITUPSAT 1 30 Jul 15:20:11 15:25:01 90° 166° (SSE) 15:29:48 437.325
STARS 30 Jul 15:39:58 15:42:40 16° 90° (E) 15:45:33 437.465
Cosmos 2504 30 Jul 15:41:25 15:49:24 50° 270° (W) 15:57:32 435.465 / 435.565
Gurwin Techsat 1B 30 Jul 15:58:30 16:02:45 23° 268° (W) 16:06:54 435.225
KKS-1 30 Jul 16:01:12 16:05:27 43° 99° (E) 16:09:44 437.445
AO-7 30 Jul 16:05:54 16:14:17 83° 70° (ENE) 16:22:42 29.400- 29.500
HORYU 2 30 Jul 16:06:42 16:11:07 69° 74° (ENE) 16:15:35 437.375
DANDE 30 Jul 16:15:17 16:18:44 74° 79° (E) 16:23:21 436.750
BEESAT 30 Jul 16:18:11 16:22:11 26° 294° (WNW) 16:26:05 436.000
ITAMSAT 1 30 Jul 16:33:18 16:35:37 12° 274° (W) 16:37:38 435.822/435.867
SWISSCUBE 30 Jul 16:39:14 16:42:18 17° 298° (WNW) 16:45:11 437.505
MOZHAYETS 4 30 Jul 16:40:09 16:42:48 15° 88° (E) 16:45:38
CUSAT 1 30 Jul 16:48:14 16:51:48 31° 263° (W) 16:56:17 437.405
JAS-2 30 Jul 16:50:40 16:55:58 30° 270° (W) 17:01:44 435.910
Cubesat XI-IV 30 Jul 16:52:15 16:53:29 11° 55° (NE) 16:54:59 437.490
SO-50 30 Jul 16:56:17 16:58:43 14° 27° (NNE) 17:01:17 436.795
GONETS M04 30 Jul 16:56:50 17:04:33 35° 67° (ENE) 17:12:24
ITUPSAT 1 30 Jul 17:00:12 17:02:15 12° 301° (WNW) 17:04:05 437.325
STARS 30 Jul 17:15:10 17:19:28 52° 288° (WNW) 17:23:46 437.465
PCSat 30 Jul 17:21:00 17:24:24 17° 35° (NE) 17:27:55 145.827
KKS-1 30 Jul 17:38:29 17:41:50 21° 295° (WNW) 17:45:05 437.445
CUTE-I 30 Jul 17:44:49 17:49:22 30° 65° (ENE) 17:54:00 437.470
HORYU 2 30 Jul 17:46:21 17:48:19 12° 272° (W) 17:50:05 437.375
Cosmos 2499 30 Jul 17:53:34 17:59:36 21° 59° (ENE) 18:06:06 435.465 / 435.565
AO-7 30 Jul 18:01:44 18:08:08 23° 271° (W) 18:14:14 29.400- 29.500
MOZHAYETS 4 30 Jul 18:15:55 18:20:30 59° 287° (WNW) 18:25:01
Cubesat XI-IV 30 Jul 18:27:23 18:32:42 68° 73° (ENE) 18:38:04 437.490
CUBESAT XI-V 30 Jul 18:29:07 18:32:12 18° 90° (E) 18:35:24 437.345
SO-50 30 Jul 18:35:35 18:40:27 52° 49° (NE) 18:45:14 436.795
GONETS M04 30 Jul 18:53:25 19:01:53 57° 269° (W) 19:10:19
PCSat 30 Jul 19:03:22 19:08:49 75° 57° (ENE) 19:14:15 145.827
VERMONT LUNAR 30 Jul 19:24:14 19:26:07 15° 155° (SSE) 19:28:02 437.305
CUTE-I 30 Jul 19:24:16 19:29:19 40° 263° (W) 19:34:22 437.470
HO-68 30 Jul 19:32:01 19:37:43 28° 58° (ENE) 19:43:36 435.675
Cosmos 2499 30 Jul 19:45:28 19:54:12 86° 81° (E) 20:03:08 435.465 / 435.565
CUTE 1.7 + AOD 2 30 Jul 19:51:24 19:53:59 16° 64° (ENE) 19:56:42 437.475
SEEDS 30 Jul 19:51:51 19:53:49 13° 63° (ENE) 19:55:58 437.485
STRAND 1 30 Jul 19:55:57 20:00:44 40° 97° (E) 20:05:32 437.568
CANX-2 30 Jul 19:58:51 20:02:01 21° 66° (ENE) 20:05:18 2200.000
BRITE-PL 30 Jul 20:00:35 20:04:58 65° 75° (ENE) 20:09:10 437.365/2234.400
CUBESAT XI-V 30 Jul 20:05:30 20:09:59 49° 288° (WNW) 20:14:24 437.345
Cubesat XI-IV 30 Jul 20:09:50 20:13:23 17° 271° (W) 20:16:44 437.490
PRISM 30 Jul 20:16:24 20:20:26 51° 100° (E) 20:24:26 437.425
DOVE 4 30 Jul 20:16:26 20:20:09 33° 70° (ENE) 20:23:54 437.250
SO-50 30 Jul 20:16:46 20:20:43 23° 247° (WSW) 20:24:28 436.795
GOMX 1 30 Jul 20:19:43 20:23:55 60° 74° (ENE) 20:28:01 467.674
AAUSAT CUBESAT 2 30 Jul 20:21:24 20:24:12 18° 65° (ENE) 20:27:09 437.432
CINEMA 3 30 Jul 20:37:42 20:41:05 25° 68° (ENE) 20:44:36 145.822/145.860
PCSat 30 Jul 20:48:13 20:51:41 17° 254° (WSW) 20:54:56 145.827
ZACube-1 30 Jul 20:49:25 20:50:04 10° 60° (ENE) 20:50:57 437.345
PHONESAT 2.4 30 Jul 20:49:49 20:51:15 12° 151° (SSE) 20:52:46 2401.200-2431.200
VERMONT LUNAR 30 Jul 20:59:26 21:02:23 35° 171° (S) 21:05:20 437.305
UWE-3 30 Jul 21:07:06 21:10:09 20° 65° (ENE) 21:13:21 435.000/436.395/437.385
FUNcube-1 30 Jul 21:09:41 21:12:17 17° 64° (ENE) 21:15:03 145.935
COMPASS 1 30 Jul 21:12:25 21:16:37 71° 74° (ENE) 21:20:51 437.405
HO-68 30 Jul 21:17:52 21:24:58 67° 257° (WSW) 21:32:07 435.675
CUBEBUG 2 30 Jul 21:18:36 21:22:19 32° 69° (ENE) 21:26:10 437.445
RS-15 30 Jul 21:19:04 21:28:10 34° 107° (ESE) 21:37:48 29.354- 29.394
Oscar 11 30 Jul 21:23:43 21:27:42 37° 70° (ENE) 21:31:45 145.826/435.025
SEEDS 30 Jul 21:24:54 21:29:07 67° 259° (W) 21:33:23 437.485
CUTE 1.7 + AOD 2 30 Jul 21:25:19 21:29:30 53° 261° (W) 21:33:43 437.475
CANX-2 30 Jul 21:33:42 21:37:43 39° 263° (W) 21:41:46 2200.000
STRAND 1 30 Jul 21:35:28 21:39:48 28° 295° (WNW) 21:44:02 437.568
Cosmos 2499 30 Jul 21:40:06 21:46:30 22° 280° (W) 21:52:36 435.465 / 435.565
BRITE-PL 30 Jul 21:42:16 21:44:00 12° 272° (W) 21:45:28 437.365/2234.400
HUMSAT D 30 Jul 21:46:35 21:49:17 18° 65° (ENE) 21:52:09 437.325/437.525
AUBIESAT-1 30 Jul 21:48:49 21:50:20 12° 91° (E) 21:52:07 437.475
DX 1 30 Jul 21:52:10 21:54:46 16° 63° (ENE) 21:57:32 434.975-435.025
DELFI C3 30 Jul 21:52:11 21:56:06 49° 73° (ENE) 22:00:05 145.870
PRISM 30 Jul 21:52:57 21:55:30 16° 296° (WNW) 21:57:53 437.425
DOVE 4 30 Jul 21:54:47 21:58:03 21° 267° (W) 22:01:14 437.250
AAUSAT CUBESAT 2 30 Jul 21:55:28 21:59:30 45° 262° (W) 22:03:35 437.432
50 SAT 30 Jul 21:59:07 21:59:51 11° 62° (ENE) 22:00:48 437.505
GOMX 1 30 Jul 22:00:44 22:02:33 12° 272° (W) 22:04:09 467.674
VELOX 1 30 Jul 22:01:50 22:03:31 12° 61° (ENE) 22:05:23 145.980
ESTCUBE 1 30 Jul 22:08:36 22:09:14 10° 59° (ENE) 22:10:07 437.505/2401.250
CINEMA 3 30 Jul 22:14:36 22:18:15 29° 266° (W) 22:21:55 145.822/145.860
ZACube-1 30 Jul 22:21:36 22:25:47 87° 257° (WSW) 22:30:06 437.345
ISS 30 Jul 22:24:41 22:27:49 47° 143° (SE) 22:30:58 145.825
PHONESAT 2.4 30 Jul 22:25:28 22:28:39 32° 166° (SSE) 22:31:50 2401.200-2431.200
ANTELSAT 30 Jul 22:29:01 22:29:28 10° 85° (E) 22:30:14 437.575/2403.000
VERMONT LUNAR 30 Jul 22:35:51 22:38:49 36° 188° (S) 22:41:46 437.305
UWE-3 30 Jul 22:42:31 22:46:27 39° 263° (W) 22:50:28 435.000/436.395/437.385
FUNcube-1 30 Jul 22:44:10 22:48:15 50° 261° (W) 22:52:25 145.935
M-CUBED/EXP-1 PRIME 30 Jul 22:50:06 22:54:50 55° 104° (ESE) 22:59:30 437.505
COMPASS 1 30 Jul 22:51:36 22:52:52 11° 274° (W) 22:53:52 437.405
CUBEBUG 2 30 Jul 22:55:43 22:59:06 23° 268° (W) 23:02:29 437.445
AISAT 30 Jul 22:55:54 23:00:02 42° 70° (ENE) 23:04:12 437.250
Cosmos 2491 30 Jul 22:58:36 23:06:02 31° 65° (ENE) 23:13:37 435.465 / 435.565
UKube-1 30 Jul 23:00:26 23:04:44 71° 74° (ENE) 23:09:03 .
Oscar 11 30 Jul 23:00:38 23:04:02 22° 268° (W) 23:07:22 145.826/435.025
HO-68 30 Jul 23:11:59 23:14:17 11° 278° (W) 23:15:59 435.675
CUBEBUG 1 30 Jul 23:14:48 23:18:48 36° 70° (ENE) 23:22:49 437.445
UNISAT 6 30 Jul 23:17:27 23:21:39 33° 95° (E) 23:25:56 437.425
HUMSAT D 30 Jul 23:20:43 23:24:42 46° 262° (W) 23:28:45 437.325/437.525
AUBIESAT-1 30 Jul 23:20:56 23:25:44 86° 289° (WNW) 23:30:25 437.475
DX 1 30 Jul 23:26:22 23:30:38 56° 259° (W) 23:34:55 434.975-435.025
YUBILEINY 30 Jul 23:26:36 23:31:09 16° 76° (ENE) 23:36:14 435.215
RS-15 30 Jul 23:28:45 23:39:43 74° 310° (NW) 23:51:09 29.354- 29.394
DELFI C3 30 Jul 23:29:09 23:31:31 14° 271° (W) 23:33:44 145.870
50 SAT 30 Jul 23:30:01 23:33:53 74° 258° (WSW) 23:37:50 437.505
POLYITAN 1 30 Jul 23:30:38 23:33:22 17° 90° (E) 23:36:14 437.675
VELOX 1 30 Jul 23:35:05 23:39:30 80° 257° (WSW) 23:43:56 145.980
AIST 1 30 Jul 23:35:23 23:39:30 45° 77° (ENE) 23:43:36
ESTCUBE 1 30 Jul 23:40:53 23:45:25 83° 76° (ENE) 23:49:59 437.505/2401.250
POPSAT HIP 1 30 Jul 23:47:44 23:51:13 25° 94° (E) 23:54:47 437.405
QB50P2 30 Jul 23:54:50 23:58:36 30° 96° (E) 00:02:24 145.880/145.840
SPROUT 30 Jul 23:56:34 00:00:18 31° 69° (ENE) 00:04:05 437.525
BUGSAT 1 30 Jul 23:59:46 00:02:44 20° 93° (E) 00:05:50 437.445
TIGRISAT 31 Jul 00:01:06 00:05:48 86° 103° (ESE) 00:10:31 435.000
ISS 31 Jul 00:01:18 00:04:20 34° 341° (NNW) 00:07:23 145.825
ANTELSAT 31 Jul 00:02:16 00:06:59 89° 278° (W) 00:11:43 437.575/2403.000
PHONESAT 2.4 31 Jul 00:02:57 00:06:18 43° 183° (S) 00:09:38 2401.200-2431.200
BEESAT 2 31 Jul 00:08:05 00:11:26 25° 115° (ESE) 00:14:54 435.950
VERMONT LUNAR 31 Jul 00:12:59 00:15:06 17° 203° (SSW) 00:17:11 437.305
TISAT 1 31 Jul 00:14:06 00:17:41 29° 69° (ENE) 00:21:22 437.305
DUCHIFAT 1 31 Jul 00:20:46 00:24:56 54° 100° (E) 00:29:05 145.980
QB50P1 31 Jul 00:22:55 00:27:08 60° 101° (E) 00:31:20 145.935-145.965
NANOSAT C BR1 31 Jul 00:24:43 00:28:56 61° 101° (E) 00:33:09 145.865
M-CUBED/EXP-1 PRIME 31 Jul 00:25:35 00:29:14 21° 301° (WNW) 00:32:45 437.505
AISAT 31 Jul 00:33:32 00:36:50 20° 268° (W) 00:40:01 437.250
SWISSCUBE 31 Jul 00:33:58 00:35:44 12° 59° (ENE) 00:37:43 437.505
UKube-1 31 Jul 00:39:54 00:41:26 11° 272° (W) 00:42:44 .
BEESAT 3 31 Jul 00:49:09 00:53:14 86° 124° (SE) 00:57:21 437.485
CUBEBUG 1 31 Jul 00:51:49 00:55:17 22° 267° (W) 00:58:39 437.445
ITUPSAT 1 31 Jul 00:52:57 00:55:52 17° 62° (ENE) 00:58:58 437.325
UNISAT 6 31 Jul 00:54:18 00:58:22 29° 292° (WNW) 01:02:23 437.425
Cosmos 2491 31 Jul 00:55:01 01:03:36 64° 267° (W) 01:12:08 435.465 / 435.565
AUBIESAT-1 31 Jul 00:57:24 00:59:45 13° 306° (NW) 01:01:54 437.475
POLYITAN 1 31 Jul 01:05:26 01:09:33 47° 288° (WNW) 01:13:40 437.675
AIST 1 31 Jul 01:14:09 01:16:49 16° 273° (W) 01:19:17
YUBILEINY 31 Jul 01:18:00 01:26:41 79° 96° (E) 01:35:28 435.215
ESTCUBE 1 31 Jul 01:21:58 01:22:59 10° 274° (W) 01:23:43 437.505/2401.250
POPSAT HIP 1 31 Jul 01:23:20 01:27:08 32° 291° (WNW) 01:30:53 437.405
QB50P2 31 Jul 01:30:49 01:34:24 26° 292° (WNW) 01:37:56 145.880/145.840
AIST 2 31 Jul 01:31:05 01:35:05 42° 119° (ESE) 01:39:09 435.215
SPROUT 31 Jul 01:32:48 01:36:24 25° 266° (W) 01:39:56 437.525
BUGSAT 1 31 Jul 01:34:36 01:38:21 35° 290° (WNW) 01:42:04 437.445
ISS 31 Jul 01:38:45 01:41:24 22° 1° (N) 01:44:03 145.825
TIGRISAT 31 Jul 01:39:52 01:41:56 13° 299° (WNW) 01:43:50 435.000
PHONESAT 2.4 31 Jul 01:40:58 01:43:53 24° 200° (SSW) 01:46:45 2401.200-2431.200
ANTELSAT 31 Jul 01:41:17 01:43:07 12° 300° (WNW) 01:44:45 437.575/2403.000
Oscar 19 31 Jul 01:44:05 01:47:40 19° 90° (E) 01:51:25 437.125/150
RS-15 31 Jul 01:44:48 01:54:31 32° 339° (NNW) 02:04:30 29.354- 29.394
BEESAT 2 31 Jul 01:45:32 01:49:22 36° 313° (NW) 01:53:13 435.950
BEESAT 31 Jul 01:47:56 01:52:35 52° 71° (ENE) 01:57:16 436.000
TISAT 1 31 Jul 01:49:56 01:53:28 25° 266° (W) 01:56:57 437.305
DUCHIFAT 1 31 Jul 01:57:43 02:00:21 16° 296° (WNW) 02:02:51 145.980
QB50P1 31 Jul 02:00:08 02:02:34 15° 297° (WNW) 02:04:51 145.935-145.965
NANOSAT C BR1 31 Jul 02:01:59 02:04:20 14° 297° (WNW) 02:06:32 145.865
SWISSCUBE 31 Jul 02:08:06 02:12:55 88° 81° (E) 02:17:46 437.505
O/OREOS (USA 219) 31 Jul 02:13:50 02:18:08 47° 108° (ESE) 02:22:28 437.305
Cosmos 2504 31 Jul 02:23:41 02:29:03 24° 82° (E) 02:34:57 435.465 / 435.565
ITUPSAT 1 31 Jul 02:28:30 02:33:17 66° 258° (WSW) 02:38:07 437.325
BEESAT 3 31 Jul 02:29:15 02:31:45 15° 324° (NW) 02:34:12 437.485
Gurwin Techsat 1B 31 Jul 02:32:57 02:36:15 17° 89° (E) 02:39:45 435.225
